This is the latest recevied weather packets stored in our database for station/object KD5BIG-13. If no packets are shown the sender has not sent any weather packets the latest 10 day(s).
| Time | Temp. | Humidity | Pressure | Rain* | Wind** | Luminosity | Snow |
|---|---|---|---|---|---|---|---|
| 1777227138 | 28.89° C | 66% | 1015.3 hPa | 0 mm | - | 875 W/m² | - |
| 1777226835 | 28.33° C | 68% | 1015.4 hPa | 0 mm | - | 1053 W/m² | - |
| 1777226533 | 28.89° C | 66% | 1015.6 hPa | 0 mm | - | 1085 W/m² | - |
| 1777226229 | 28.89° C | 71% | 1015.5 hPa | 0 mm | - | 1026 W/m² | - |
| 1777225925 | 27.78° C | 69% | 1015.7 hPa | 0 mm | - | 900 W/m² | - |
| 1777225621 | 28.33° C | 69% | 1015.7 hPa | 0 mm | - | 634 W/m² | - |
| 1777225318 | 28.33° C | 68% | 1015.8 hPa | 0 mm | - | 990 W/m² | - |
| 1777225015 | 27.78° C | 72% | 1015.8 hPa | 0 mm | - | 972 W/m² | - |
| 1777224712 | 28.33° C | 67% | 1016 hPa | 0 mm | - | 970 W/m² | - |
| 1777224407 | 27.78° C | 69% | 1015.8 hPa | 0 mm | - | 961 W/m² | - |
| 1777224104 | 27.78° C | 70% | 1016.1 hPa | 0 mm | - | 948 W/m² | - |
| 1777223801 | 27.78° C | 67% | 1016.1 hPa | 0 mm | - | 938 W/m² | - |
| 1777223496 | 27.78° C | 67% | 1016.2 hPa | 0 mm | - | 923 W/m² | - |
| 1777223194 | 27.78° C | 69% | 1016 hPa | 0 mm | - | 936 W/m² | - |
| 1777222892 | 27.22° C | 71% | 1016.2 hPa | 0 mm | - | 955 W/m² | - |
| 1777222589 | 27.22° C | 69% | 1016.3 hPa | 0 mm | - | 554 W/m² | - |
| 1777222286 | 27.78° C | 71% | 1016.3 hPa | 0 mm | - | 309 W/m² | - |
| 1777221985 | 28.33° C | 65% | 1016.2 hPa | 0 mm | - | 953 W/m² | - |
| 1777221685 | 27.78° C | 69% | 1016.2 hPa | 0 mm | - | 972 W/m² | - |
| 1777221381 | 27.78° C | 69% | 1016.1 hPa | 0 mm | - | 908 W/m² | - |
| 1777221080 | 27.22° C | 70% | 1016.4 hPa | 0 mm | - | 872 W/m² | - |
| 1777220780 | 27.22° C | 72% | 1016.2 hPa | 0 mm | - | 857 W/m² | - |
| 1777220475 | 26.67° C | 77% | 1016.3 hPa | 0 mm | - | 844 W/m² | - |
| 1777220170 | 26.67° C | 70% | 1016.2 hPa | 0 mm | - | 837 W/m² | - |
| 1777219867 | 26.67° C | 71% | 1016.1 hPa | 0 mm | - | 824 W/m² | - |
* Rain latest hour (hover to see other rain measurements)
** Current wind speed in m/s (hover to see current wind gust speed)